Location: Unspecified
(0.0000°N, 0.0000°E)
Time: 07:42:51
(UTC+00:00)

Envisat - Visible Passes

Search period start: 24 January 2018 00:00
Search period end: 03 February 2018 00:00
Orbit: 764 x 766 km, 98.2° (Epoch: 23 January)

Date Brightness Start Highest point End Pass type
(mag) Time Alt. Az. Time Alt. Az. Time Alt. Az.
24 Jan 3.8 19:21:22 10° SE 19:25:13 28° E 19:25:13 28° E visible
24 Jan 5.5 21:01:15 10° SW 21:04:24 17° WSW 21:05:26 16° W visible
25 Jan 3.9 20:22:56 10° S 20:27:49 47° WSW 20:28:20 45° W visible
26 Jan 2.9 19:46:12 10° SSE 19:51:12 60° ENE 19:51:14 60° ENE visible
27 Jan 4.2 19:10:49 10° SE 19:14:07 21° E 19:14:07 21° E visible
27 Jan 5.1 20:49:24 10° SSW 20:53:19 23° WSW 20:54:19 21° W visible
28 Jan 3.3 20:11:41 10° S 20:16:43 65° WSW 20:17:13 61° WNW visible
29 Jan 3.2 19:35:17 10° SSE 19:40:05 43° ENE 19:40:07 43° ENE visible
29 Jan 6.0 21:18:03 10° WSW 21:18:48 10° WSW 21:19:33 10° W visible
30 Jan 4.5 19:00:35 10° ESE 19:03:00 15° E 19:03:00 15° E visible
30 Jan 4.7 20:37:48 10° SSW 20:42:13 30° WSW 20:43:13 28° W visible
31 Jan 2.9 20:00:31 10° SSE 20:05:36 88° WSW 20:06:06 74° NNW visible
01 Feb 3.6 19:24:30 10° SE 19:28:59 32° ENE 19:28:59 32° ENE visible
01 Feb 5.7 21:04:58 10° SW 21:07:43 15° WSW 21:09:11 13° W visible
02 Feb 4.8 18:51:06 10° E 18:51:52 11° E 18:51:52 11° E visible
02 Feb 4.1 20:26:22 10° S 20:31:07 41° WSW 20:32:04 37° WNW visible
